Regional Weather Roundup
Issued by NWS State College, PA

Home | Current Version | Previous Version | Graphics & Text | Print | Product List | Glossary Off
Versions: 1 2 3 4 5 6 7 8 9 10 11 12 13 14 15 16 17 18 19 20 21 22 23 24 25 26 27 28 29 30 31 32 33 34 35 36 37 38 39 40 41 42 43 44 45 46 47 48 49 50

000
ASUS41 KCTP 040610
RWRCTP

REGIONAL WEATHER ROUNDUP
NATIONAL WEATHER SERVICE STATE COLLEGE PA
100 AM EST SUN DEC 04 2016

Note: "fair" indicates few or no clouds below 12,000 feet with no
significant weather and/or obstructions to visibility.

* = STATION THAT DOES NOT REPORT PRECIPITATION /E.G. RAIN...SNOW...ETC/
    THUNDER OR FOG.

PAZ002>004-007>009-013>016-020>023-029>032-040700-
WESTERN PENNSYLVANIA

CITY           SKY/WX    TMP DP  RH WIND       PRES   REMARKS
ERIE           CLOUDY    38  33  82 SW3       30.26S
MEADVILLE      CLOUDY    33  30  88 W8        30.24F
FRANKLIN*        N/A     34  27  75 W10       30.25S
NEW CASTLE     CLOUDY    35  28  75 CALM      30.28S
BEAVER COUNTY  NOT AVBL
BUTLER*        CLOUDY    34  27  75 W6        30.29S
PITTSBURGH INT CLOUDY    36  27  69 CALM      30.26F
PITTSBURGH     CLOUDY    34  24  67 CALM      30.26F
INDIANA*       CLOUDY    36  30  80 W5        30.27F
LATROBE        CLOUDY    34  27  75 S6        30.28F
WASHINGTON CO* CLOUDY    34  25  69 CALM      30.27F
$$

PAZ004>006-010>012-017>019-024>028-033>037-041-042-045-046-049>053-040700-
CENTRAL PENNSYLVANIA

CITY           SKY/WX    TMP DP  RH WIND       PRES   REMARKS
BRADFORD       CLOUDY    33  31  92 NW6       30.19S
DUBOIS         CLOUDY    33  30  88 W8        30.20F FOG
CLEARFIELD     CLOUDY    34  33  96 W3        30.21F
JOHNSTOWN      CLOUDY    30  27  88 W9        30.20F
ALTOONA        CLOUDY    36  29  75 NW5       30.23F
STATE COLLEGE  CLOUDY    37  32  83 W8        30.22F
WILLIAMSPORT   CLOUDY    41  26  55 NW7       30.22R
SELINSGROVE    LGT RAIN  40  35  83 N7        30.24R
FT INDIANTOWN  CLOUDY    42  31  65 NW2       30.22R
CAPITAL CITY   CLOUDY    44  29  55 NW7       30.24R
HARRISBURG     CLOUDY    43  31  62 NW8       30.23R
YORK           CLOUDY    41  31  67 W8        30.23S
$$

PAZ038>040-043-044-047-048-054-055-060>062-067>071-040700-
EASTERN PENNSYLVANIA

CITY           SKY/WX    TMP DP  RH WIND       PRES   REMARKS
SCRANTON       CLOUDY    38  24  57 NW16G23   30.19R
MOUNT POCONO   CLOUDY    32  21  64 NW18G26   30.13S
ALLENTOWN      CLOUDY    42  23  46 NW15      30.21R
QUAKERTOWN*    CLOUDY    41  25  52 NW7       30.21R
READING        CLOUDY    43  26  51 NW9       30.21S
LANCASTER      CLOUDY    43  32  65 NW6       30.22S
COATESVILLE    CLOUDY    41  32  70 NW7       30.22R
POTTSTOWN      CLOUDY    42  26  53 NW7       30.22S
BLUE BELL      CLOUDY    41  27  56 NW5       30.20R
DOYLESTOWN     CLOUDY    43  26  51 NW8       30.19R
WILLOW GROVE   NOT AVBL
NORTH PHILA    CLOUDY    44  25  47 NW8       30.22R
PHILADELPHIA   CLOUDY    46  30  53 NW10      30.22R
$$




USA.gov is the U.S. government's official web portal to all federal, state and local government web resources and services.